Torna al catalogo

CZ-6A DEB

AttivoSSO
NORAD 56605·DEBRIS·🇨🇳 China

Lanciato Nov 11, 2022 da Taiyuan Satellite Launch Center

Loading…

Prossimi Passaggi (prossime 24 ore)

TLE

AggiornatoSource: Space-Track

Epoca: Sep 14, 2026, 21:12 UTC

1 56605U 22151AED 26257.88363584  .00003435  00000-0  11361-2 0  9999
2 56605  98.7702 296.0454 0000653  93.2796 266.8465 14.38623294188081

Traccia CZ-6A DEB in tempo reale con AllMySat

Download on the App Store